DateRun                       ,Max30MinCOAvg       ,Max15MinCOAvg       ,Max3MinCOAvg        
------------------------------,--------------------,--------------------,--------------------
2020-05-01 00:30:00           ,                 .02,                 .04,               .9543
2020-05-01 01:30:00           ,                 .02,                 .04,              1.6262
2020-05-01 02:30:00           ,                 .02,                 .05,              1.6325
2020-05-01 03:30:00           ,                 .01,                 .02,              1.2865
2020-05-01 04:30:00           ,                 .01,                 .03,              1.4842
2020-05-01 05:30:00           ,                 .02,                 .03,              1.9314
2020-05-01 06:30:00           ,                 .11,                 .22,              7.3710
2020-05-01 07:30:00           ,                 .20,                 .40,              5.8413
2020-05-01 08:30:01           ,                 .11,                 .22,              6.0060
2020-05-01 09:30:00           ,                 .09,                 .17,              4.9548
2020-05-01 10:30:00           ,                 .14,                 .27,             11.5204
2020-05-01 11:30:00           ,                 .14,                 .27,              7.5368
2020-05-01 12:30:00           ,                 .12,                 .24,              6.6472
2020-05-01 13:30:00           ,                 .12,                 .24,              8.5176
2020-05-01 14:30:00           ,                 .12,                 .24,              6.0325
2020-05-01 15:30:00           ,                 .23,                 .45,             11.9443
2020-05-01 16:30:00           ,                 .23,                 .45,              7.3901
2020-05-01 17:30:00           ,                 .13,                 .25,              7.9570
2020-05-01 18:30:00           ,                 .13,                 .26,              8.2315
2020-05-01 19:30:00           ,                 .13,                 .26,              4.0964
2020-05-01 20:30:01           ,                 .14,                 .29,              5.3575
2020-05-01 21:30:00           ,                 .10,                 .20,              2.4226
2020-05-01 22:30:00           ,                 .05,                 .11,              2.5444
2020-05-01 23:30:00           ,                 .05,                 .09,              1.4116
2020-05-02 00:30:01           ,                 .03,                 .05,              1.7517
2020-05-02 01:30:00           ,                 .03,                 .05,              1.4116
2020-05-02 02:30:00           ,                 .03,                 .05,              1.4116
2020-05-02 03:30:00           ,                 .03,                 .05,               .9389
2020-05-02 04:30:00           ,                 .02,                 .05,              1.4116
2020-05-02 05:30:00           ,                 .02,                 .04,              1.1027
2020-05-02 06:30:00           ,                 .06,                 .12,              3.9194
2020-05-02 07:30:00           ,                 .16,                 .31,              5.3548
2020-05-02 08:30:00           ,                 .16,                 .32,              4.4986
2020-05-02 09:30:00           ,                 .10,                 .21,              6.9598
2020-05-02 10:30:00           ,                 .12,                 .25,              5.8900
2020-05-02 11:30:00           ,                 .12,                 .25,              7.0388
2020-05-02 12:30:00           ,                 .12,                 .23,              5.8990
2020-05-02 13:30:00           ,                 .12,                 .24,              9.3447
2020-05-02 14:30:00           ,                 .11,                 .21,              5.7109
2020-05-02 15:30:00           ,                 .19,                 .38,              7.3418
2020-05-02 16:30:00           ,                 .19,                 .38,              4.9733
2020-05-02 17:30:00           ,                 .09,                 .19,              6.0060
2020-05-02 18:30:00           ,                 .10,                 .20,              6.2297
2020-05-02 19:30:00           ,                 .10,                 .20,              5.2473
2020-05-02 20:30:00           ,                 .08,                 .16,              2.0299
2020-05-02 21:30:00           ,                 .08,                 .16,              1.9171
2020-05-02 22:30:00           ,                 .05,                 .11,              4.3492
2020-05-02 23:30:00           ,                 .06,                 .13,              3.8129
2020-05-03 00:30:00           ,                 .07,                 .15,              1.4699
2020-05-03 01:30:00           ,                 .01,                 .02,              1.2388
2020-05-03 02:30:00           ,                 .04,                 .08,              1.1170
2020-05-03 03:30:00           ,                 .03,                 .06,              1.1578
2020-05-03 04:30:00           ,                 .03,                 .06,               .9363
2020-05-03 05:30:00           ,                 .03,                 .05,               .9331
2020-05-03 06:30:00           ,                 .03,                 .05,              2.2355
2020-05-03 07:30:00           ,                 .07,                 .15,              3.0277
2020-05-03 08:30:01           ,                 .07,                 .14,              5.3633
2020-05-03 09:30:00           ,                 .07,                 .14,              3.9253
2020-05-03 10:30:00           ,                 .09,                 .18,              6.4495
2020-05-03 11:30:00           ,                 .15,                 .30,              6.2567
2020-05-03 12:30:00           ,                 .14,                 .28,              8.0248
2020-05-03 13:30:00           ,                 .13,                 .25,              6.2069
2020-05-03 14:30:00           ,                 .14,                 .28,              7.1363
2020-05-03 15:30:00           ,                 .14,                 .28,              5.9668
2020-05-03 16:30:00           ,                 .12,                 .24,              4.0757
2020-05-03 17:30:00           ,                 .10,                 .21,              4.9993
2020-05-03 18:30:00           ,                 .11,                 .22,              7.7679
2020-05-03 19:30:00           ,                 .11,                 .22,              5.3617
2020-05-03 20:30:00           ,                 .09,                 .17,              2.0103
2020-05-03 21:30:00           ,                 .04,                 .08,              1.4693
2020-05-03 22:30:01           ,                 .04,                 .08,              1.3835
2020-05-03 23:30:00           ,                 .03,                 .05,              1.8339
2020-05-04 00:30:00           ,                 .03,                 .05,               .9389
2020-05-04 01:30:00           ,                 .02,                 .05,              2.4226
2020-05-04 02:30:00           ,                 .04,                 .07,               .9352
2020-05-04 03:30:00           ,                 .02,                 .05,              1.4121
2020-05-04 04:30:00           ,                 .02,                 .05,              1.3618
2020-05-04 05:30:00           ,                 .01,                 .03,              2.0294
2020-05-04 06:30:00           ,                 .06,                 .11,              6.5322
2020-05-04 07:30:00           ,                 .19,                 .39,              7.4764
2020-05-04 08:30:00           ,                 .19,                 .39,              6.7855
2020-05-04 09:30:00           ,                 .14,                 .28,              5.5758
2020-05-04 10:30:00           ,                 .08,                 .17,              5.7104
2020-05-04 11:30:00           ,                 .13,                 .26,              6.6059
2020-05-04 12:30:00           ,                 .13,                 .27,              6.0977
2020-05-04 13:30:00           ,                 .22,                 .45,              6.0315
2020-05-04 14:30:00           ,                 .11,                 .21,              6.4495
2020-05-04 15:30:01           ,                 .13,                 .26,              7.3471
2020-05-04 16:30:00           ,                 .15,                 .30,              9.6807
2020-05-04 17:30:00           ,                 .16,                 .32,              9.9483
2020-05-04 18:30:00           ,                 .16,                 .32,              9.1164
2020-05-04 19:30:00           ,                 .15,                 .29,              8.1902
2020-05-04 20:30:01           ,                 .12,                 .25,              2.4475
2020-05-04 21:30:00           ,                 .06,                 .12,              3.2274
2020-05-04 22:30:00           ,                 .04,                 .08,              1.7533
2020-05-04 23:30:00           ,                 .05,                 .09,              1.5848
2020-05-05 00:30:00           ,                 .05,                 .09,               .9490
2020-05-05 01:30:00           ,                 .02,                 .05,              1.1090
2020-05-05 02:30:00           ,                 .03,                 .05,              1.1964
2020-05-05 03:30:00           ,                 .02,                 .05,               .9453
2020-05-05 04:30:01           ,                 .02,                 .04,              1.8948
2020-05-05 05:30:00           ,                 .05,                 .10,              3.7599
2020-05-05 06:30:00           ,                 .10,                 .20,              8.4917
2020-05-05 07:30:00           ,                 .24,                 .47,             10.3128
2020-05-05 08:30:00           ,                 .24,                 .47,              7.8034
2020-05-05 09:30:00           ,                 .12,                 .24,              5.2791
2020-05-05 10:30:00           ,                 .09,                 .19,              7.0711
2020-05-05 11:30:00           ,                 .10,                 .20,              5.5191
2020-05-05 12:30:00           ,                 .10,                 .20,              5.6632
2020-05-05 13:30:00           ,                 .10,                 .21,              6.2503
2020-05-05 14:30:00           ,                 .12,                 .25,              7.2131
2020-05-05 15:30:00           ,                 .14,                 .28,             10.2365
2020-05-05 16:30:00           ,                 .14,                 .28,              6.3309
2020-05-05 17:30:00           ,                 .11,                 .22,              7.2316
2020-05-05 18:30:00           ,                 .12,                 .23,              6.9863
2020-05-05 19:30:00           ,                 .12,                 .23,              2.5471
2020-05-05 20:30:00           ,                 .09,                 .19,              7.3498
2020-05-05 21:30:00           ,                 .09,                 .19,              7.3805
2020-05-05 22:30:00           ,                 .12,                 .24,              4.9702
2020-05-05 23:30:00           ,                 .07,                 .15,              1.4116
2020-05-06 00:30:00           ,                 .02,                 .05,              1.4121
2020-05-06 01:30:00           ,                 .02,                 .04,               .9368
2020-05-06 02:30:00           ,                 .02,                 .04,               .9903
2020-05-06 03:30:00           ,                 .02,                 .04,              1.1032
2020-05-06 04:30:01           ,                 .02,                 .04,               .9813
2020-05-06 05:30:00           ,                 .02,                 .05,              1.8741
2020-05-06 06:30:00           ,                 .10,                 .20,              8.0853
2020-05-06 07:30:00           ,                 .19,                 .38,              7.2666
2020-05-06 08:30:01           ,                 .15,                 .29,              5.8534
2020-05-06 09:30:00           ,                 .09,                 .18,              5.7787
2020-05-06 10:30:00           ,                 .10,                 .20,              6.7733
2020-05-06 11:30:00           ,                 .15,                 .29,              6.9582
2020-05-06 12:30:01           ,                 .16,                 .33,              5.9202
2020-05-06 13:30:00           ,                 .11,                 .23,              6.9773
2020-05-06 14:30:00           ,                 .11,                 .22,              9.3288
2020-05-06 15:30:00           ,                 .13,                 .25,              9.4518
2020-05-06 16:30:00           ,                 .15,                 .30,              6.7632
2020-05-06 17:30:00           ,                 .14,                 .28,              8.0996
2020-05-06 18:30:01           ,                 .14,                 .28,              7.2316
2020-05-06 19:30:00           ,                 .11,                 .22,              4.3492
2020-05-06 20:30:00           ,                 .16,                 .32,              8.2967
2020-05-06 21:30:00           ,                 .16,                 .32,              1.5642
2020-05-06 22:30:00           ,                 .07,                 .15,              3.7562
2020-05-06 23:30:01           ,                 .06,                 .12,               .9342
2020-05-07 00:30:00           ,                 .03,                 .05,              1.5472
2020-05-07 01:30:00           ,                 .04,                 .08,               .9347
2020-05-07 02:30:00           ,                 .01,                 .03,               .9357
2020-05-07 03:30:01           ,                 .03,                 .05,               .9373
2020-05-07 04:30:00           ,                 .03,                 .05,               .9723
2020-05-07 05:30:00           ,                 .04,                 .07,              1.9298
2020-05-07 06:30:00           ,                 .14,                 .28,              8.5431
2020-05-07 07:30:00           ,                 .25,                 .50,              6.6700
2020-05-07 08:30:00           ,                 .25,                 .50,              5.5790
2020-05-07 09:30:00           ,                 .10,                 .21,              6.0029
2020-05-07 10:30:00           ,                 .11,                 .21,              5.6569
2020-05-07 11:30:00           ,                 .09,                 .18,              4.9845
2020-05-07 12:30:00           ,                 .10,                 .21,              8.3788
2020-05-07 13:30:00           ,                 .12,                 .23,              5.8704
2020-05-07 14:30:00           ,                 .11,                 .22,              5.9038
2020-05-07 15:30:00           ,                 .18,                 .36,              9.3198
2020-05-07 16:30:01           ,                 .18,                 .36,             10.1072
2020-05-07 17:30:00           ,                 .14,                 .29,              5.9197
2020-05-07 18:30:00           ,                 .09,                 .18,              5.3591
2020-05-07 19:30:00           ,                 .08,                 .15,              4.8864
2020-05-07 20:30:01           ,                 .08,                 .16,              5.3570
2020-05-07 21:30:00           ,                 .09,                 .17,              2.5444
2020-05-07 22:30:00           ,                 .06,                 .12,              1.8694
2020-05-07 23:30:00           ,                 .05,                 .09,              1.4116
2020-05-08 00:30:00           ,                 .05,                 .09,              4.3492
2020-05-08 01:30:00           ,                 .07,                 .14,              3.2184
2020-05-08 02:30:00           ,                 .05,                 .09,              3.0123
2020-05-08 03:30:00           ,                 .07,                 .14,              1.6574
2020-05-08 04:30:00           ,                 .04,                 .07,               .9347
2020-05-08 05:30:00           ,                 .03,                 .06,              1.9287
2020-05-08 06:30:00           ,                 .11,                 .21,              7.0096
2020-05-08 07:30:00           ,                 .21,                 .41,              9.0793
2020-05-08 08:30:00           ,                 .19,                 .38,              6.4077
2020-05-08 09:30:00           ,                 .12,                 .23,              5.8126
2020-05-08 10:30:00           ,                 .10,                 .21,              5.8937
2020-05-08 11:30:00           ,                 .11,                 .22,              8.0747
2020-05-08 12:30:00           ,                 .20,                 .40,             10.5089
2020-05-08 13:30:00           ,                 .20,                 .40,              9.1111
2020-05-08 14:30:00           ,                 .15,                 .30,              6.1714
2020-05-08 15:30:00           ,                 .21,                 .41,              9.5556
2020-05-08 16:30:00           ,                 .21,                 .41,             11.9019
2020-05-08 17:30:00           ,                 .21,                 .41,             11.1044
2020-05-08 18:30:00           ,                 .16,                 .32,              5.9594
2020-05-08 19:30:00           ,                 .11,                 .22,              5.3601
2020-05-08 20:30:00           ,                 .10,                 .20,              6.0272
2020-05-08 21:30:00           ,                 .14,                 .27,              3.4214
2020-05-08 22:30:00           ,                 .08,                 .15,              3.4245
2020-05-08 23:30:00           ,                 .08,                 .15,              2.0209
2020-05-09 00:30:00           ,                 .07,                 .15,               .9294
2020-05-09 01:30:00           ,                 .02,                 .04,              7.8834
2020-05-09 02:30:00           ,                 .10,                 .20,              3.6095
2020-05-09 03:30:00           ,                 .10,                 .20,              2.1184
2020-05-09 04:30:00           ,                 .04,                 .07,               .9220
2020-05-09 05:30:00           ,                 .05,                 .09,              4.3492
2020-05-09 06:30:00           ,                 .06,                 .11,              5.2192
2020-05-09 07:30:00           ,                 .13,                 .25,              5.6081
2020-05-09 08:30:00           ,                 .13,                 .25,              4.9702
2020-05-09 09:30:00           ,                 .11,                 .22,              7.2041
2020-05-09 10:30:00           ,                 .11,                 .22,              4.4927
2020-05-09 11:30:00           ,                 .14,                 .27,              9.1370
2020-05-09 12:30:00           ,                 .14,                 .27,              7.0600
2020-05-09 13:30:00           ,                 .13,                 .27,              6.6785
2020-05-09 14:30:00           ,                 .18,                 .35,              5.7030
2020-05-09 15:30:00           ,                 .14,                 .28,             10.2344
2020-05-09 16:30:00           ,                 .15,                 .30,              7.0425
2020-05-09 17:30:00           ,                 .13,                 .25,              4.9431
2020-05-09 18:30:00           ,                 .08,                 .15,              7.7080
2020-05-09 19:30:00           ,                 .09,                 .18,              2.3102
2020-05-09 20:30:00           ,                 .06,                 .12,              1.7215
2020-05-09 21:30:00           ,                 .07,                 .14,              4.5457
2020-05-09 22:30:00           ,                 .09,                 .17,              3.3572
2020-05-09 23:30:01           ,                 .07,                 .14,              1.2717
2020-05-10 00:30:00           ,                 .03,                 .05,              1.4126
2020-05-10 01:30:00           ,                 .02,                 .04,               .9236
2020-05-10 02:30:00           ,                 .02,                 .05,              1.1117
2020-05-10 03:30:01           ,                 .02,                 .05,              1.7311
2020-05-10 04:30:00           ,                 .01,                 .03,              1.5620
2020-05-10 05:30:00           ,                 .01,                 .02,              9.9329
2020-05-10 06:30:00           ,                 .15,                 .30,              3.7901
2020-05-10 07:30:00           ,                 .08,                 .15,              2.0082
2020-05-10 08:30:00           ,                 .06,                 .12,              4.9559
2020-05-10 09:30:00           ,                 .08,                 .16,              4.9601
2020-05-10 10:30:00           ,                 .09,                 .18,              4.9537
2020-05-10 11:30:00           ,                 .10,                 .19,              6.0283
2020-05-10 12:30:01           ,                 .13,                 .25,              7.3524
2020-05-10 13:30:00           ,                 .12,                 .24,              6.7442
2020-05-10 14:30:00           ,                 .11,                 .22,              7.6062
2020-05-10 15:30:00           ,                 .11,                 .22,              5.9727
2020-05-10 16:30:00           ,                 .10,                 .20,              5.9780
2020-05-10 17:30:00           ,                 .09,                 .17,              5.6542
2020-05-10 18:30:01           ,                 .11,                 .23,              4.9993
2020-05-10 19:30:00           ,                 .14,                 .27,              6.2026
2020-05-10 20:30:00           ,                 .14,                 .27,              1.6368
2020-05-10 21:30:00           ,                 .08,                 .16,              2.8639
2020-05-10 22:30:00           ,                 .08,                 .16,              1.9674
2020-05-10 23:30:00           ,                 .05,                 .11,              1.2558
2020-05-11 00:30:00           ,                 .04,                 .08,              1.7618
2020-05-11 01:30:00           ,                 .02,                 .03,              1.0348
2020-05-11 02:30:00           ,                 .02,                 .04,              1.5403
2020-05-11 03:30:01           ,                 .02,                 .04,              1.4147
2020-05-11 04:30:00           ,                 .03,                 .05,              1.4863
2020-05-11 05:30:00           ,                 .03,                 .05,              2.8936
2020-05-11 06:30:00           ,                 .09,                 .17,              6.6991
2020-05-11 07:30:00           ,                 .20,                 .40,              7.4913
2020-05-11 08:30:01           ,                 .18,                 .35,              7.4907
2020-05-11 09:30:00           ,                 .15,                 .31,              5.9483